User: anonymous   Login
Location: Unspecified
(0.0000°N, 0.0000°E)
Time: 09:19:21
(UTC+00:00)
Language:

COSMOS 2489 - Orbit

View from above orbital plane
View from above orbital plane
View from above satellite
View from above satellite

Ground track
Ground track

The orbit data is extracted from the following two-line orbital elements,

1 39484U 13076B   17268.84777170 +.00000010 +00000-0 +00000-0 0  9991
2 39484 082.4940 354.8331 0021827 198.1127 161.9180 12.42880662170321
Epoch (UTC): 25 September 2017 20:20:47
Eccentricity: 0.0021827
inclination: 82.4940°
perigee height: 1477 km
apogee height: 1511 km
right ascension of ascending node: 354.8331°
argument of perigee: 198.1127°
revolutions per day: 12.42880662
mean anomaly at epoch: 161.9180°
orbit number at epoch: 17032

The dashed part of the orbit path shows where the satellite is in the earth's shadow,  

DLR